Welcome to the New NWS' Forecast!
Most changes are behind the scenes, but click here for differences you might notice.
Latest weather observations around

Philadelphia, Philadelphia International Airport (KPHL)

Using English Units (Switch to International System of Units)
Date/ Time (EDT) Wind (mph) Vis. (mi) Weather Sky Cond. Temp (°F) Rel. Humidity Wind Chill (°F) Heat Index (°F) Pressure Precip. (in)
Air Dwpt 6 hour Altimeter (inHg) Sea level (inHg) 1 hr 3 hr 6 hr
Max Min
Sep 23 09:54 N 11 10 Partly Cloudy FEW080 SCT280 78 55     45%   78 30.07 30.06      
Sep 23 08:54 N 9 10 Partly Cloudy FEW050 FEW100 SCT280 75 53     46%   74 30.05 30.05      
Sep 23 07:54 N 8 10 Partly Cloudy FEW060 SCT280 69 52     54%     30.04 30.03      
Sep 23 06:54 N 7 10 Mostly Cloudy FEW060 BKN280 67 52     59%     30.03 30.03      
Sep 23 05:54 NNW 6 10 Partly Cloudy SCT250 68 51     55%     30.03 30.02      
Sep 23 04:54 NNW 6 10 Partly Cloudy FEW060 SCT250 69 51     53%     30.02 30.02      
Sep 23 03:54 N 6 10 Partly Cloudy FEW060 SCT250 69 52     54%     30.01 30.01      
Sep 23 02:54 NNW 7 10 Partly Cloudy FEW070 SCT250 70 53     55%     30 30      
Sep 23 01:54 NNW 5 10 Partly Cloudy FEW070 SCT250 71 53     53%   70 30.01 30.01      
Sep 23 00:54 NNW 8 10 Mostly Cloudy SCT065 BKN250 72 54     53%   71 30.01 30      
Sep 22 23:54 N 7 10 Mostly Cloudy BKN050 BKN250 74 54     50%   73 30 30      
Sep 22 22:54 N 8 10 Mostly Cloudy FEW150 BKN250 74 54     50%   73 30 29.99      
Sep 22 21:54 NNW 7 10 Mostly Cloudy FEW150 BKN250 73 56     55%   73 29.98 29.98      
Sep 22 20:54 NNW 5 10 Partly Cloudy FEW150 SCT250 75 56     52%   75 29.97 29.97      
Sep 22 19:54 NNW 7 10 Mostly Cloudy FEW140 SCT200 BKN260 78 56     47%   78 29.96 29.96      
Sep 22 18:54 N 7 10 Mostly Cloudy FEW140 SCT200 BKN260 79 56     45%   79 29.95 29.95      
Sep 22 17:54 N 8 10 Mostly Cloudy FEW060 FEW120 BKN280 81 56     42%   81 29.95 29.95      
Sep 22 16:54 N 11 10 Mostly Cloudy FEW060 FEW150 BKN280 82 56     41%   82 29.95 29.95      
Sep 22 15:54   10 Mostly Cloudy FEW080 FEW150 BKN280 82 58     44%   82 29.95 29.95      
Sep 22 14:54 NNW 13 10 Mostly Cloudy FEW080 FEW150 SCT230 BKN280 82 55     40%   81 29.97 29.97      
Sep 22 13:54 NW 10 10 Mostly Cloudy FEW080 FEW150 SCT230 BKN280 80 55     42%   80 29.99 29.98      
Sep 22 12:54 7 10 Mostly Cloudy FEW075 FEW150 SCT210 BKN280 77 57     50%   77 30.02 30.01      
Sep 22 11:54 NW 7 10 Mostly Cloudy SCT150 SCT220 BKN280 75 58     55%   75 30.03 30.03      
Sep 22 10:54 NNW 9 10 Mostly Cloudy SCT140 SCT220 BKN280 73 58     59%   73 30.05 30.04      
Sep 22 09:54 N 10 10 Mostly Cloudy SCT120 BKN210 BKN280 72 56     57%   72 30.05 30.05      
Sep 22 08:54 N 14 10 Mostly Cloudy SCT120 BKN210 BKN280 72 54     53%   71 30.05 30.05      
Sep 22 07:54 N 8 10 Clear   69 59     70%     30.05 30.05      
Sep 22 06:54 N 6 10 Mostly Cloudy SCT120 BKN210 BKN250 70 59     68%     30.04 30.04      
Sep 22 05:54 NNW 9 10 Mostly Cloudy SCT210 BKN250 71 58     63%   71 30.02 30.02      
Sep 22 04:54 NNE 5 10 Cloudy BKN230 OVC260 71 60     68%   71 30.02 30.02      
Sep 22 03:54 N 10 10 Cloudy SCT210 OVC250 72 60     66%   72 30.01 30.01      
Sep 22 02:54 N 9 10 Mostly Cloudy FEW230 BKN250 72 60     66%   72 30.02 30.01      
Sep 22 01:54 N 8 10 Mostly Cloudy FEW060 BKN250 73 60     64%   73 30.02 30.02      
Sep 22 00:54 N 7 10 Mostly Cloudy FEW050 BKN250 74 61     64%   74 30.03 30.03      
Sep 21 23:54 ENE 6 10 Mostly Cloudy SCT050 BKN250 74 61     64%   74 30.03 30.03      
Sep 21 22:54 ENE 6 10 Mostly Cloudy BKN250 74 62     66%   74 30.03 30.03      
Sep 21 21:54 Calm 10 Mostly Cloudy FEW055 SCT085 BKN250 75 63     66%   75 30.03 30.03      
Sep 21 20:54 E 3 10 Mostly Cloudy SCT065 SCT080 BKN250 78 59     52%   78 30.01 30.01      
Sep 21 19:54 E 5 10 Mostly Cloudy FEW055 BKN250 77 59     54%   77 30 30      
Sep 21 18:54 NNE 5 10 Mostly Cloudy FEW055 BKN250 81 61     51%   82 30 30      
Sep 21 17:54 N 10 10 Mostly Cloudy FEW055 BKN250 84 60     44%   84 29.99 29.99      
Sep 21 16:54 N 10 10 Mostly Cloudy FEW055 BKN240 BKN280 87 61     42%   87 29.98 29.98      
Sep 21 15:54 3 10 Mostly Cloudy FEW055 SCT200 BKN280 87 60     40%   87 29.98 29.97      
Sep 21 14:54 N 8 10 Mostly Cloudy FEW055 SCT200 BKN280 86 60     42%   86 29.99 29.98      
Sep 21 13:54 NNE 10 10 Partly Cloudy FEW055 SCT200 SCT300 86 61     43%   86 29.99 29.99      
Sep 21 12:54 NNE 8 10 Partly Cloudy FEW050 SCT200 SCT300 85 60     43%   85 30.01 30.01      
Sep 21 11:54 NNE 8 10 Partly Cloudy FEW045 FEW180 SCT250 SCT300 84 63     49%   85 30.03 30.02      
Sep 21 10:54 N 13 10 Partly Cloudy FEW040 SCT150 SCT240 SCT280 82 64     55%   84 30.03 30.03      
Sep 21 09:54 NNW 8 10 Partly Cloudy FEW110 SCT240 SCT280 80 64     58%   82 30.04 30.03      
Sep 21 08:54 N 9 10 Partly Cloudy FEW065 FEW110 SCT240 SCT280 76 63     64%   76 30.04 30.03      
Sep 21 07:54 NNW 8 10 Mostly Cloudy SCT065 BKN110 BKN240 73 62     68%   73 30.03 30.03      
Sep 21 06:54 N 9 10 Mostly Cloudy BKN065 BKN110 BKN250 73 62     68%   73 30.03 30.02      
Sep 21 05:54 N 7 10 Mostly Cloudy BKN070 BKN250 71 63     76%   71 30.01 30.01      
Sep 21 04:54 NNW 5 10 Mostly Cloudy SCT240 BKN280 70 63     78%     29.99 29.99      
Sep 21 03:54 NW 5 10 Partly Cloudy SCT250 71 63     76%   71 29.98 29.98      
Sep 21 02:54 NW 7 10 Partly Cloudy SCT250 72 64     76%   72 29.97 29.97      
Sep 21 01:54 NNW 6 10 Mostly Clear FEW250 72 64     76%   72 29.98 29.97      
Sep 21 00:54 N 3 10 Mostly Clear FEW250 73 64     73%   73 29.97 29.96      
Sep 20 23:54 N 6 10 Mostly Clear FEW060 75 64     69%   75 29.96 29.96      
Sep 20 22:54 NNE 5 10 Mostly Clear FEW060 FEW280 75 64     69%   75 29.95 29.95      
Sep 20 21:54 NE 3 10 Mostly Clear FEW060 FEW280 77 64     64%   77 29.94 29.94      
Sep 20 20:54 3 10 Partly Cloudy SCT060 SCT280 79 64     60%   79 29.93 29.93      
Sep 20 19:54 6 10 Partly Cloudy FEW035 FEW050 SCT280 80 64     58%   82 29.92 29.92      
Sep 20 18:54 NE 10 10 Partly Cloudy FEW050 SCT280 80 64     58%   82 29.9 29.9      
Sep 20 17:54 N 10 10 Partly Cloudy FEW055 SCT270 85 61     45%   85 29.9 29.89      
Sep 20 16:54 NNE 15 10 Partly Cloudy FEW055 SCT270 86 61     43%   86 29.88 29.88      
Sep 20 15:54 N 13 10 Partly Cloudy FEW048 SCT250 86 62     45%   87 29.87 29.87      
Sep 20 14:54 N 14 10 Mostly Cloudy SCT044 BKN250 85 65     51%   87 29.88 29.88      
Sep 20 13:54 N 14 10 Mostly Cloudy SCT040 SCT100 BKN250 85 66     53%   87 29.89 29.89      
Sep 20 12:54 N 13 10 Partly Cloudy FEW036 FEW100 SCT250 83 65     55%   85 29.9 29.89      
Sep 20 11:54 NNW 15 10 Partly Cloudy FEW035 FEW090 SCT250 81 65     58%   83 29.9 29.9      
Sep 20 10:54 N 13 10 Partly Cloudy FEW032 FEW080 SCT250 79 64     60%   79 29.91 29.91      
Jun 10 21:54 SSW 6 10 Mostly Clear FEW070 78 58     50%   78 30.05 30.04      
Jun 10 15:54   10 Mostly Clear FEW065 87 53     31%   85 29.99 29.99      
Jun 10 11:54 SW 9 10 Mostly Clear FEW150 FEW280 82 55     40%   81 30.03 30.03      
Jun 10 08:54 WSW 6 10 Mostly Cloudy FEW060 BKN120 BKN280 73 56     55%   73 30.03 30.03      
Jun 08 08:54 6 10 Clear   64 51     63%     30.01 30.01      
Jun 07 16:54 ENE 5 10 Cloudy OVC047 65 48     54%     30.02 30.01      
Jun 07 09:37 ENE 9 10 Cloudy BKN023 OVC040 57 47     69%     30.01        
Jun 06 06:32 NE 8 2 Rain and Fog/Mist SCT004 BKN012 OVC031 61 59     93%     29.7   0